| time (UTC) | temp F | wind direction | speed MPH | gust MPH | rain 1hr in | rain 24hr in | rain mn in | humidity % | barometer mb |
| 20260831160105 | 71 | 1 | 1.0 | 3.0 | 0.00 | 0.04 | 0.01 | 67 | 1022.5 |
| 20260831155549 | 71 | 1 | 1.0 | 6.0 | 0.00 | 0.04 | 0.01 | 69 | 1022.4 |
| 20260831155049 | 71 | 29 | 4.0 | 6.0 | 0.00 | 0.04 | 0.01 | 68 | 1022.6 |
| 20260831154547 | 71 | 30 | 2.0 | 5.0 | 0.00 | 0.04 | 0.01 | 69 | 1022.5 |
| 20260831154046 | 71 | 26 | 2.0 | 5.0 | 0.00 | 0.04 | 0.01 | 68 | 1022.4 |
| 20260831153543 | 71 | 48 | 2.0 | 5.0 | 0.00 | 0.04 | 0.01 | 68 | 1022.6 |
| 20260831153058 | 71 | 26 | 2.0 | 6.0 | 0.00 | 0.04 | 0.01 | 70 | 1022.5 |
| 20260831152536 | 71 | 47 | 2.0 | 6.0 | 0.00 | 0.04 | 0.01 | 69 | 1022.6 |
| 20260831152029 | 71 | 56 | 1.0 | 5.0 | 0.00 | 0.04 | 0.01 | 69 | 1022.6 |
| 20260831151520 | 72 | 49 | 1.0 | 5.0 | 0.00 | 0.04 | 0.01 | 68 | 1022.5 |
| 20260831151021 | 72 | 37 | 2.0 | 5.0 | 0.00 | 0.04 | 0.01 | 68 | 1022.4 |
| 20260831150520 | 72 | 61 | 1.0 | 4.0 | 0.00 | 0.04 | 0.01 | 70 | 1022.4 |
| 20260831150019 | 72 | 49 | 2.0 | 4.0 | 0.00 | 0.04 | 0.01 | 70 | 1022.3 |
| 20260831145519 | 71 | 51 | 2.0 | 4.0 | 0.00 | 0.04 | 0.01 | 71 | 1022.4 |
| 20260831145013 | 71 | 49 | 1.0 | 5.0 | 0.00 | 0.04 | 0.01 | 70 | 1022.4 |
| 20260831144511 | 71 | 54 | 1.0 | 5.0 | 0.00 | 0.04 | 0.01 | 69 | 1022.3 |
| 20260831144008 | 71 | 36 | 0.0 | 5.0 | 0.00 | 0.04 | 0.01 | 69 | 1022.4 |
| 20260831143506 | 71 | 20 | 3.0 | 5.0 | 0.00 | 0.04 | 0.01 | 69 | 1022.3 |
| 20260831143239 | 72 | 44 | 1.0 | 2.0 | 0.00 | 0.04 | 0.01 | 68 | 1022.2 |
| 20260831142506 | 72 | 44 | 1.0 | 3.0 | 0.00 | 0.04 | 0.01 | 68 | 1022.0 |
| 20260831142005 | 73 | 47 | 1.0 | 3.0 | 0.00 | 0.04 | 0.01 | 69 | 1022.1 |
| 20260831141503 | 72 | 47 | 1.0 | 4.0 | 0.00 | 0.04 | 0.01 | 69 | 1022.1 |
| 20260831141442 | 72 | 49 | 1.0 | 4.0 | 0.00 | 0.04 | 0.01 | 70 | 1022.1 |
| 20260831140504 | 72 | 44 | 1.0 | 4.0 | 0.00 | 0.04 | 0.01 | 70 | 1022.2 |
| 20260831140005 | 72 | 51 | 2.0 | 4.0 | 0.00 | 0.04 | 0.01 | 70 | 1022.1 |
| 20260831135501 | 72 | 58 | 1.0 | 5.0 | 0.00 | 0.04 | 0.01 | 71 | 1022.1 |
| 20260831135002 | 72 | 58 | 1.0 | 5.0 | 0.00 | 0.04 | 0.01 | 72 | 1022.0 |
| 20260831134459 | 72 | 14 | 0.0 | 5.0 | 0.00 | 0.04 | 0.01 | 73 | 1022.0 |
| 20260831134223 | 71 | 12 | 3.0 | 5.0 | 0.00 | 0.04 | 0.01 | 71 | 1022.0 |
| 20260831133500 | 71 | 64 | 1.0 | 5.0 | 0.00 | 0.04 | 0.01 | 71 | 1022.0 |
| 20260831133447 | 71 | 63 | 0.0 | 6.0 | 0.00 | 0.04 | 0.01 | 72 | 1022.0 |
| 20260831132457 | 71 | 31 | 1.0 | 6.0 | 0.00 | 0.04 | 0.01 | 73 | 1022.0 |
| 20260831131957 | 71 | 78 | 2.0 | 5.0 | 0.00 | 0.04 | 0.01 | 73 | 1021.9 |
| 20260831131456 | 71 | 63 | 0.0 | 6.0 | 0.00 | 0.04 | 0.01 | 74 | 1021.8 |
| 20260831130956 | 70 | 51 | 2.0 | 6.0 | 0.00 | 0.04 | 0.01 | 73 | 1021.8 |
| 20260831130722 | 70 | 50 | 3.0 | 6.0 | 0.00 | 0.04 | 0.01 | 73 | 1021.9 |
| 20260831125948 | 70 | 35 | 1.0 | 5.0 | 0.00 | 0.04 | 0.01 | 75 | 1021.9 |
| 20260831125443 | 70 | 359 | 0.0 | 4.0 | 0.00 | 0.04 | 0.01 | 75 | 1021.9 |
| 20260831124943 | 70 | 359 | 1.0 | 4.0 | 0.00 | 0.04 | 0.01 | 76 | 1021.8 |
| 20260831124443 | 69 | 1 | 2.0 | 6.0 | 0.00 | 0.04 | 0.01 | 77 | 1021.8 |
| 20260831123942 | 69 | 56 | 2.0 | 7.0 | 0.00 | 0.04 | 0.01 | 77 | 1021.8 |
| 20260831123706 | 68 | 65 | 4.0 | 7.0 | 0.00 | 0.04 | 0.01 | 77 | 1021.6 |
| 20260831122942 | 68 | 44 | 2.0 | 5.0 | 0.00 | 0.04 | 0.01 | 79 | 1021.6 |
| 20260831122441 | 68 | 28 | 2.0 | 6.0 | 0.00 | 0.04 | 0.01 | 79 | 1021.6 |
| 20260831121940 | 68 | 24 | 3.0 | 6.0 | 0.00 | 0.04 | 0.01 | 79 | 1021.4 |
| 20260831121438 | 68 | 3 | 1.0 | 5.0 | 0.00 | 0.04 | 0.01 | 79 | 1021.4 |
| 20260831120937 | 68 | 333 | 2.0 | 6.0 | 0.00 | 0.04 | 0.01 | 78 | 1021.4 |
| 20260831120437 | 67 | 21 | 1.0 | 6.0 | 0.00 | 0.04 | 0.01 | 78 | 1021.4 |
| 20260831115938 | 67 | 43 | 3.0 | 5.0 | 0.00 | 0.04 | 0.01 | 78 | 1021.5 |
| 20260831115437 | 67 | 1 | 3.0 | 6.0 | 0.00 | 0.04 | 0.01 | 78 | 1021.4 |
| 20260831114937 | 67 | 58 | 4.0 | 8.0 | 0.00 | 0.04 | 0.01 | 79 | 1021.3 |
| 20260831114435 | 67 | 4 | 3.0 | 8.0 | 0.00 | 0.04 | 0.01 | 79 | 1021.2 |
| 20260831113936 | 67 | 38 | 3.0 | 7.0 | 0.00 | 0.04 | 0.01 | 79 | 1021.2 |
| 20260831113652 | 67 | 1 | 2.0 | 9.0 | 0.00 | 0.04 | 0.01 | 79 | 1021.2 |
| 20260831112930 | 67 | 38 | 3.0 | 9.0 | 0.00 | 0.04 | 0.01 | 79 | 1021.2 |
| 20260831112432 | 67 | 63 | 4.0 | 7.0 | 0.00 | 0.04 | 0.01 | 79 | 1021.1 |
| 20260831111924 | 67 | 14 | 4.0 | 8.0 | 0.00 | 0.04 | 0.01 | 79 | 1021.1 |
| 20260831111423 | 67 | 62 | 3.0 | 8.0 | 0.00 | 0.04 | 0.01 | 79 | 1021.0 |
| 20260831111155 | 67 | 37 | 4.0 | 7.0 | 0.00 | 0.04 | 0.01 | 79 | 1021.0 |
| 20260831110420 | 67 | 333 | 4.0 | 6.0 | 0.00 | 0.04 | 0.01 | 79 | 1021.0 |
| 20260831110141 | 67 | 16 | 1.0 | 7.0 | 0.00 | 0.04 | 0.01 | 78 | 1020.9 |
| 20260831105417 | 67 | 337 | 3.0 | 7.0 | 0.00 | 0.04 | 0.01 | 78 | 1020.9 |
| 20260831104917 | 67 | 59 | 3.0 | 7.0 | 0.00 | 0.04 | 0.01 | 78 | 1020.8 |
| 20260831104648 | 66 | 298 | 4.0 | 7.0 | 0.00 | 0.04 | 0.01 | 79 | 1020.9 |
| 20260831103915 | 66 | 33 | 3.0 | 7.0 | 0.00 | 0.04 | 0.01 | 80 | 1020.8 |
| 20260831103416 | 67 | 23 | 3.0 | 5.0 | 0.00 | 0.04 | 0.01 | 82 | 1020.7 |
| 20260831102915 | 67 | 354 | 3.0 | 7.0 | 0.00 | 0.04 | 0.01 | 82 | 1020.7 |
| 20260831102413 | 66 | 359 | 3.0 | 8.0 | 0.00 | 0.04 | 0.01 | 82 | 1020.6 |
| 20260831101912 | 66 | 56 | 2.0 | 8.0 | 0.00 | 0.04 | 0.01 | 82 | 1020.5 |
| 20260831101411 | 66 | 14 | 3.0 | 6.0 | 0.00 | 0.04 | 0.01 | 82 | 1020.4 |
| 20260831100912 | 66 | 49 | 3.0 | 6.0 | 0.00 | 0.04 | 0.01 | 83 | 1020.4 |
| 20260831100412 | 66 | 8 | 3.0 | 5.0 | 0.00 | 0.04 | 0.01 | 84 | 1020.4 |
| 20260831095910 | 66 | 36 | 2.0 | 6.0 | 0.00 | 0.04 | 0.01 | 85 | 1020.4 |
| 20260831095410 | 66 | 355 | 3.0 | 7.0 | 0.00 | 0.04 | 0.01 | 85 | 1020.4 |
| 20260831094909 | 66 | 47 | 1.0 | 7.0 | 0.00 | 0.04 | 0.01 | 86 | 1020.3 |
| 20260831094632 | 65 | 29 | 2.0 | 6.0 | 0.00 | 0.04 | 0.01 | 86 | 1020.2 |
| 20260831093908 | 65 | 38 | 1.0 | 4.0 | 0.00 | 0.04 | 0.01 | 86 | 1020.1 |
| 20260831093408 | 65 | 38 | 2.0 | 4.0 | 0.00 | 0.04 | 0.01 | 86 | 1020.2 |
| 20260831092907 | 65 | 59 | 2.0 | 4.0 | 0.00 | 0.04 | 0.01 | 86 | 1020.2 |
| 20260831092406 | 65 | 30 | 1.0 | 4.0 | 0.00 | 0.04 | 0.01 | 86 | 1020.1 |
| 20260831091905 | 66 | 44 | 1.0 | 2.0 | 0.00 | 0.04 | 0.01 | 86 | 1020.1 |
| 20260831091621 | 66 | 44 | 0.0 | 4.0 | 0.00 | 0.04 | 0.01 | 86 | 1020.0 |
| 20260831090904 | 66 | 44 | 2.0 | 4.0 | 0.00 | 0.04 | 0.01 | 86 | 1020.0 |
| 20260831090404 | 66 | 34 | 2.0 | 3.0 | 0.00 | 0.04 | 0.01 | 86 | 1020.1 |
| 20260831085902 | 66 | 36 | 1.0 | 3.0 | 0.00 | 0.04 | 0.01 | 86 | 1020.0 |
| 20260831085401 | 66 | 40 | 1.0 | 5.0 | 0.00 | 0.04 | 0.01 | 87 | 1020.1 |
| 20260831084902 | 66 | 58 | 2.0 | 5.0 | 0.00 | 0.04 | 0.01 | 87 | 1020.0 |
| 20260831084840 | 66 | 53 | 2.0 | 5.0 | 0.00 | 0.04 | 0.01 | 88 | 1020.0 |
| 20260831083859 | 67 | 48 | 2.0 | 5.0 | 0.00 | 0.04 | 0.01 | 88 | 1019.9 |
| 20260831083358 | 67 | 47 | 2.0 | 6.0 | 0.00 | 0.04 | 0.01 | 89 | 1019.8 |
| 20260831082857 | 67 | 347 | 2.0 | 6.0 | 0.00 | 0.04 | 0.01 | 89 | 1019.6 |
| 20260831082625 | 67 | 32 | 2.0 | 5.0 | 0.00 | 0.04 | 0.01 | 89 | 1019.7 |
| 20260831081856 | 67 | 56 | 1.0 | 5.0 | 0.00 | 0.04 | 0.01 | 89 | 1019.7 |
| 20260831081355 | 67 | 10 | 1.0 | 4.0 | 0.00 | 0.04 | 0.01 | 89 | 1019.4 |
| 20260831080854 | 67 | 68 | 2.0 | 4.0 | 0.00 | 0.04 | 0.01 | 90 | 1019.4 |
| 20260831080352 | 67 | 36 | 2.0 | 4.0 | 0.00 | 0.04 | 0.01 | 90 | 1019.4 |
| 20260831075850 | 67 | 29 | 2.0 | 4.0 | 0.00 | 0.04 | 0.01 | 90 | 1019.2 |
| 20260831075352 | 67 | 41 | 1.0 | 4.0 | 0.00 | 0.04 | 0.01 | 90 | 1019.2 |
| 20260831074851 | 67 | 31 | 0.0 | 4.0 | 0.00 | 0.04 | 0.01 | 90 | 1019.2 |
| 20260831074351 | 67 | 20 | 1.0 | 5.0 | 0.00 | 0.04 | 0.01 | 90 | 1019.1 |
| 20260831073842 | 67 | 205 | 2.0 | 5.0 | 0.00 | 0.04 | 0.01 | 90 | 1019.0 |
| 20260831073344 | 67 | 19 | 1.0 | 6.0 | 0.00 | 0.04 | 0.01 | 90 | 1019.0 |
| 20260831072842 | 67 | 352 | 3.0 | 6.0 | 0.00 | 0.04 | 0.01 | 90 | 1018.8 |
| 20260831072333 | 67 | 42 | 2.0 | 6.0 | 0.00 | 0.04 | 0.01 | 90 | 1018.7 |
| 20260831071833 | 67 | 44 | 2.0 | 6.0 | 0.00 | 0.04 | 0.01 | 91 | 1018.8 |
| 20260831071553 | 67 | 63 | 2.0 | 6.0 | 0.00 | 0.04 | 0.01 | 91 | 1018.8 |
| 20260831070831 | 67 | 51 | 2.0 | 4.0 | 0.00 | 0.04 | 0.01 | 91 | 1018.8 |
| 20260831070316 | 67 | 47 | 1.0 | 4.0 | 0.00 | 0.04 | 0.01 | 91 | 1018.8 |
| 20260831065816 | 67 | 37 | 1.0 | 4.0 | 0.00 | 0.04 | 0.01 | 91 | 1018.8 |
| 20260831065807 | 66 | 37 | 2.0 | 4.0 | 0.00 | 0.04 | 0.01 | 92 | 1018.8 |
| 20260831064813 | 67 | 36 | 2.0 | 4.0 | 0.00 | 0.04 | 0.01 | 92 | 1018.7 |
| 20260831064313 | 67 | 37 | 2.0 | 5.0 | 0.00 | 0.04 | 0.01 | 92 | 1018.7 |
| 20260831063811 | 67 | 49 | 2.0 | 5.0 | 0.00 | 0.04 | 0.01 | 92 | 1018.7 |
| 20260831063310 | 67 | 34 | 1.0 | 5.0 | 0.00 | 0.04 | 0.01 | 92 | 1018.7 |
| 20260831063031 | 67 | 359 | 2.0 | 5.0 | 0.00 | 0.04 | 0.01 | 92 | 1018.7 |
| 20260831062529 | 67 | 56 | 2.0 | 7.0 | 0.00 | 0.04 | 0.01 | 92 | 1018.7 |
| 20260831061801 | 67 | 39 | 2.0 | 7.0 | 0.00 | 0.04 | 0.01 | 92 | 1018.7 |
| 20260831061258 | 67 | 0 | 1.0 | 4.0 | 0.00 | 0.04 | 0.01 | 92 | 1018.7 |
| 20260831060757 | 68 | 359 | 1.0 | 4.0 | 0.00 | 0.04 | 0.01 | 92 | 1018.6 |
| 20260831060524 | 68 | 7 | 1.0 | 4.0 | 0.00 | 0.04 | 0.01 | 92 | 1018.6 |
| 20260831055757 | 68 | 8 | 0.0 | 4.0 | 0.00 | 0.04 | 0.01 | 92 | 1018.6 |
| 20260831055256 | 68 | 317 | 1.0 | 3.0 | 0.01 | 0.04 | 0.01 | 92 | 1018.6 |
| 20260831054757 | 68 | 314 | 1.0 | 3.0 | 0.01 | 0.04 | 0.01 | 92 | 1018.4 |
| 20260831054516 | 68 | 304 | 0.0 | 2.0 | 0.01 | 0.04 | 0.01 | 92 | 1018.3 |
| 20260831053747 | 68 | 303 | 1.0 | 2.0 | 0.01 | 0.04 | 0.01 | 91 | 1018.3 |
| 20260831053506 | 68 | 303 | 1.0 | 2.0 | 0.01 | 0.04 | 0.01 | 91 | 1018.2 |
| 20260831053230 | 68 | 303 | 0.0 | 3.0 | 0.01 | 0.04 | 0.01 | 91 | 1018.2 |
| 20260831052233 | 69 | 303 | 1.0 | 3.0 | 0.01 | 0.04 | 0.01 | 91 | 1018.0 |
| 20260831051731 | 69 | 275 | 0.0 | 2.0 | 0.01 | 0.04 | 0.01 | 91 | 1018.1 |
| 20260831051230 | 69 | 275 | 0.0 | 2.0 | 0.01 | 0.04 | 0.01 | 91 | 1017.9 |
| 20260831050710 | 69 | 275 | 1.0 | 2.0 | 0.01 | 0.04 | 0.01 | 91 | 1017.8 |
| 20260831050208 | 69 | 274 | 0.0 | 2.0 | 0.01 | 0.04 | 0.01 | 91 | 1017.9 |
| 20260831045708 | 69 | 314 | 0.0 | 2.0 | 0.01 | 0.03 | 0.01 | 91 | 1017.9 |
| 20260831045159 | 69 | 314 | 1.0 | 2.0 | 0.01 | 0.03 | 0.00 | 91 | 1017.8 |
| 20260831045147 | 69 | 314 | 0.0 | 2.0 | 0.01 | 0.03 | 0.00 | 91 | 1017.8 |
| 20260831044154 | 69 | 314 | 0.0 | 2.0 | 0.02 | 0.03 | 0.00 | 91 | 1017.9 |
| 20260831043651 | 69 | 314 | 0.0 | 3.0 | 0.03 | 0.03 | 0.00 | 91 | 1017.9 |
| 20260831043152 | 69 | 314 | 1.0 | 3.0 | 0.03 | 0.03 | 0.00 | 90 | 1018.0 |
| 20260831042649 | 69 | 313 | 1.0 | 4.0 | 0.03 | 0.03 | 0.00 | 90 | 1017.9 |
| 20260831042150 | 69 | 313 | 1.0 | 4.0 | 0.03 | 0.03 | 0.00 | 90 | 1017.9 |
| 20260831041648 | 70 | 243 | 1.0 | 4.0 | 0.03 | 0.03 | 0.00 | 90 | 1017.9 |
| 20260831040646 | 70 | 332 | 1.0 | 4.0 | 0.03 | 0.03 | 0.00 | 89 | 1017.9 |
| 20260831040148 | 70 | 332 | 1.0 | 4.0 | 0.03 | 0.03 | 0.00 | 89 | 1017.8 |
| 20260831035639 | 70 | 334 | 1.0 | 3.0 | 0.02 | 0.02 | 0.02 | 89 | 1017.9 |
| 20260831035137 | 70 | 335 | 1.0 | 5.0 | 0.02 | 0.02 | 0.02 | 88 | 1017.9 |
| 20260831034636 | 70 | 312 | 2.0 | 5.0 | 0.02 | 0.02 | 0.02 | 88 | 1017.9 |
| 20260831034137 | 71 | 321 | 2.0 | 7.0 | 0.01 | 0.01 | 0.02 | 88 | 1018.0 |
| 20260831033903 | 71 | 336 | 2.0 | 7.0 | 0.00 | 0.00 | 0.00 | 87 | 1018.0 |
| 20260831033136 | 71 | 255 | 2.0 | 4.0 | 0.00 | 0.00 | 0.00 | 87 | 1018.1 |
| 20260831032636 | 72 | 311 | 2.0 | 4.0 | 0.00 | 0.00 | 0.00 | 87 | 1018.0 |
| 20260831032133 | 72 | 41 | 1.0 | 4.0 | 0.00 | 0.00 | 0.00 | 86 | 1017.9 |
| 20260831031632 | 72 | 329 | 1.0 | 4.0 | 0.00 | 0.00 | 0.00 | 85 | 1017.9 |
| 20260831031130 | 72 | 262 | 0.0 | 3.0 | 0.00 | 0.00 | 0.00 | 85 | 1017.9 |
| 20260831030631 | 72 | 255 | 1.0 | 4.0 | 0.00 | 0.00 | 0.00 | 85 | 1018.0 |
| 20260831030129 | 72 | 304 | 1.0 | 6.0 | 0.00 | 0.00 | 0.00 | 85 | 1018.0 |
| 20260831025835 | 72 | 313 | 2.0 | 5.0 | 0.00 | 0.00 | 0.00 | 84 | 1017.9 |
| 20260831025718 | 72 | 323 | 1.0 | 6.0 | 0.00 | 0.00 | 0.00 | 84 | 1018.0 |
| 20260831024626 | 72 | 320 | 0.0 | 2.0 | 0.00 | 0.00 | 0.00 | 84 | 1017.9 |
| 20260831024126 | 72 | 320 | 1.0 | 3.0 | 0.00 | 0.00 | 0.00 | 84 | 1018.0 |
| 20260831023623 | 72 | 320 | 0.0 | 2.0 | 0.00 | 0.00 | 0.00 | 84 | 1018.0 |
| 20260831023122 | 72 | 322 | 1.0 | 4.0 | 0.00 | 0.00 | 0.00 | 84 | 1018.0 |
| 20260831022622 | 72 | 322 | 1.0 | 4.0 | 0.00 | 0.00 | 0.00 | 83 | 1017.9 |
| 20260831022122 | 73 | 309 | 1.0 | 3.0 | 0.00 | 0.00 | 0.00 | 83 | 1017.9 |
| 20260831021622 | 73 | 309 | 0.0 | 2.0 | 0.00 | 0.00 | 0.00 | 83 | 1017.9 |
| 20260831021120 | 73 | 309 | 1.0 | 3.0 | 0.00 | 0.00 | 0.00 | 82 | 1017.9 |
| 20260831020832 | 73 | 309 | 0.0 | 6.0 | 0.00 | 0.00 | 0.00 | 82 | 1017.9 |
| 20260831020110 | 73 | 287 | 1.0 | 6.0 | 0.00 | 0.00 | 0.00 | 82 | 1017.9 |
| 20260831015610 | 73 | 255 | 1.0 | 4.0 | 0.00 | 0.00 | 0.00 | 81 | 1017.9 |
| 20260831015110 | 73 | 245 | 1.0 | 5.0 | 0.00 | 0.00 | 0.00 | 81 | 1017.8 |
| 20260831014607 | 73 | 1 | 1.0 | 5.0 | 0.00 | 0.00 | 0.00 | 80 | 1017.8 |
| 20260831014108 | 73 | 356 | 1.0 | 4.0 | 0.00 | 0.00 | 0.00 | 79 | 1017.8 |
| 20260831013606 | 73 | 350 | 1.0 | 4.0 | 0.00 | 0.00 | 0.00 | 78 | 1017.7 |
| 20260831013107 | 74 | 268 | 1.0 | 3.0 | 0.00 | 0.00 | 0.00 | 78 | 1017.7 |
| 20260831012606 | 74 | 330 | 1.0 | 3.0 | 0.00 | 0.00 | 0.00 | 77 | 1017.7 |
| 20260831012326 | 74 | 330 | 1.0 | 2.0 | 0.00 | 0.00 | 0.00 | 77 | 1017.7 |
| 20260831011603 | 74 | 330 | 1.0 | 4.0 | 0.00 | 0.00 | 0.00 | 76 | 1017.7 |
| 20260831011323 | 74 | 327 | 1.0 | 5.0 | 0.00 | 0.00 | 0.00 | 76 | 1017.7 |
| 20260831010603 | 74 | 295 | 1.0 | 5.0 | 0.00 | 0.00 | 0.00 | 75 | 1017.7 |
| 20260831010101 | 74 | 47 | 1.0 | 3.0 | 0.00 | 0.00 | 0.00 | 75 | 1017.6 |
| 20260831005553 | 74 | 47 | 1.0 | 4.0 | 0.00 | 0.00 | 0.00 | 75 | 1017.7 |
| 20260831005052 | 74 | 47 | 1.0 | 4.0 | 0.00 | 0.00 | 0.00 | 74 | 1017.6 |
| 20260831004551 | 74 | 285 | 1.0 | 4.0 | 0.00 | 0.00 | 0.00 | 74 | 1017.6 |
| 20260831004049 | 74 | 276 | 1.0 | 4.0 | 0.00 | 0.00 | 0.00 | 73 | 1017.5 |
| 20260831003547 | 74 | 355 | 0.0 | 3.0 | 0.00 | 0.00 | 0.00 | 73 | 1017.6 |
| 20260831003047 | 74 | 250 | 1.0 | 3.0 | 0.00 | 0.00 | 0.00 | 72 | 1017.5 |
| 20260831002545 | 74 | 244 | 1.0 | 2.0 | 0.00 | 0.00 | 0.00 | 71 | 1017.5 |
| 20260831002309 | 74 | 241 | 1.0 | 3.0 | 0.00 | 0.00 | 0.00 | 71 | 1017.4 |
| 20260831001539 | 74 | 281 | 1.0 | 5.0 | 0.00 | 0.00 | 0.00 | 70 | 1017.4 |
| 20260831001038 | 74 | 335 | 1.0 | 5.0 | 0.00 | 0.00 | 0.00 | 70 | 1017.3 |
| 20260831000537 | 74 | 342 | 1.0 | 2.0 | 0.00 | 0.00 | 0.00 | 69 | 1017.3 |
| 20260831000255 | 74 | 342 | 1.0 | 2.0 | 0.00 | 0.00 | 0.00 | 69 | 1017.2 |
| 20260830235537 | 74 | 343 | 1.0 | 2.0 | 0.00 | 0.00 | 0.00 | 70 | 1017.2 |
| 20260830235031 | 74 | 276 | 1.0 | 2.0 | 0.00 | 0.00 | 0.00 | 69 | 1017.3 |
| 20260830234521 | 74 | 274 | 0.0 | 2.0 | 0.00 | 0.00 | 0.00 | 69 | 1017.3 |
| 20260830234023 | 75 | 143 | 0.0 | 2.0 | 0.00 | 0.00 | 0.00 | 68 | 1017.3 |
| 20260830233513 | 75 | 143 | 1.0 | 4.0 | 0.00 | 0.00 | 0.00 | 67 | 1017.3 |
| 20260830233012 | 75 | 143 | 1.0 | 4.0 | 0.00 | 0.00 | 0.00 | 67 | 1017.2 |
| 20260830232737 | 75 | 233 | 1.0 | 3.0 | 0.00 | 0.00 | 0.00 | 66 | 1017.3 |
| 20260830232237 | 75 | 184 | 1.0 | 3.0 | 0.00 | 0.00 | 0.00 | 67 | 1017.3 |
| 20260830231510 | 75 | 213 | 1.0 | 3.0 | 0.00 | 0.00 | 0.00 | 67 | 1017.3 |
| 20260830231009 | 75 | 212 | 1.0 | 3.0 | 0.00 | 0.00 | 0.00 | 67 | 1017.3 |
| 20260830230507 | 76 | 245 | 0.0 | 3.0 | 0.00 | 0.00 | 0.00 | 67 | 1017.2 |
| 20260830230008 | 76 | 245 | 1.0 | 3.0 | 0.00 | 0.00 | 0.00 | 66 | 1017.3 |
| 20260830225504 | 76 | 181 | 1.0 | 3.0 | 0.00 | 0.00 | 0.00 | 66 | 1017.5 |
| 20260830225004 | 76 | 193 | 0.0 | 3.0 | 0.00 | 0.00 | 0.00 | 67 | 1017.5 |
| 20260830224729 | 76 | 213 | 1.0 | 3.0 | 0.00 | 0.00 | 0.00 | 66 | 1017.6 |
| 20260830223954 | 76 | 148 | 1.0 | 4.0 | 0.00 | 0.00 | 0.00 | 66 | 1017.5 |
| 20260830223452 | 76 | 278 | 1.0 | 5.0 | 0.00 | 0.00 | 0.00 | 66 | 1017.5 |
| 20260830222951 | 76 | 359 | 1.0 | 5.0 | 0.00 | 0.00 | 0.00 | 65 | 1017.5 |
| 20260830222450 | 77 | 59 | 2.0 | 5.0 | 0.00 | 0.00 | 0.00 | 65 | 1017.6 |
| 20260830221950 | 77 | 79 | 1.0 | 4.0 | 0.00 | 0.00 | 0.00 | 64 | 1017.7 |
| 20260830221450 | 77 | 135 | 1.0 | 5.0 | 0.00 | 0.00 | 0.00 | 64 | 1017.5 |
| 20260830220947 | 77 | 261 | 1.0 | 5.0 | 0.00 | 0.00 | 0.00 | 65 | 1017.5 |
| 20260830220445 | 77 | 176 | 1.0 | 5.0 | 0.00 | 0.00 | 0.00 | 64 | 1017.7 |
| 20260830215945 | 78 | 185 | 2.0 | 4.0 | 0.00 | 0.00 | 0.00 | 63 | 1017.8 |
| 20260830215717 | 78 | 167 | 1.0 | 4.0 | 0.00 | 0.00 | 0.00 | 63 | 1017.8 |
| 20260830214943 | 78 | 162 | 1.0 | 4.0 | 0.00 | 0.00 | 0.00 | 62 | 1017.9 |
| 20260830214441 | 78 | 148 | 1.0 | 3.0 | 0.00 | 0.00 | 0.00 | 61 | 1017.8 |
| 20260830213934 | 78 | 187 | 0.0 | 2.0 | 0.00 | 0.00 | 0.00 | 60 | 1017.8 |
| 20260830213653 | 78 | 122 | 0.0 | 2.0 | 0.00 | 0.00 | 0.00 | 61 | 1017.8 |
| 20260830212935 | 79 | 271 | 1.0 | 5.0 | 0.00 | 0.00 | 0.00 | 60 | 1017.7 |
| 20260830212431 | 79 | 205 | 1.0 | 5.0 | 0.00 | 0.00 | 0.00 | 60 | 1017.7 |
| 20260830212147 | 79 | 83 | 0.0 | 4.0 | 0.00 | 0.00 | 0.00 | 58 | 1017.7 |
| 20260830211416 | 80 | 83 | 1.0 | 4.0 | 0.00 | 0.00 | 0.00 | 57 | 1017.6 |
| 20260830210917 | 80 | 50 | 1.0 | 3.0 | 0.00 | 0.00 | 0.00 | 55 | 1017.7 |
| 20260830210414 | 80 | 342 | 1.0 | 4.0 | 0.00 | 0.00 | 0.00 | 54 | 1017.7 |
| 20260830210136 | 80 | 341 | 0.0 | 4.0 | 0.00 | 0.00 | 0.00 | 57 | 1017.8 |
| 20260830205413 | 80 | 70 | 0.0 | 2.0 | 0.00 | 0.00 | 0.00 | 56 | 1017.8 |
| 20260830204914 | 80 | 70 | 1.0 | 3.0 | 0.00 | 0.00 | 0.00 | 56 | 1017.8 |
| 20260830204410 | 80 | 8 | 1.0 | 3.0 | 0.00 | 0.00 | 0.00 | 55 | 1017.9 |
| 20260830203910 | 80 | 32 | 1.0 | 4.0 | 0.00 | 0.00 | 0.00 | 54 | 1017.9 |
| 20260830203629 | 80 | 245 | 0.0 | 6.0 | 0.00 | 0.00 | 0.00 | 55 | 1017.9 |
| 20260830202907 | 80 | 313 | 2.0 | 6.0 | 0.00 | 0.00 | 0.00 | 54 | 1017.9 |
| 20260830202407 | 81 | 276 | 0.0 | 8.0 | 0.00 | 0.00 | 0.00 | 54 | 1018.0 |
| 20260830201858 | 81 | 359 | 2.0 | 9.0 | 0.00 | 0.00 | 0.00 | 50 | 1018.0 |
| 20260830201357 | 81 | 290 | 4.0 | 9.0 | 0.00 | 0.00 | 0.00 | 48 | 1018.0 |
| 20260830200857 | 82 | 304 | 2.0 | 6.0 | 0.00 | 0.00 | 0.00 | 50 | 1018.0 |
| 20260830200356 | 82 | 308 | 1.0 | 5.0 | 0.00 | 0.00 | 0.00 | 50 | 1017.9 |
| 20260830195855 | 82 | 280 | 1.0 | 4.0 | 0.00 | 0.00 | 0.00 | 52 | 1018.0 |
| 20260830195355 | 82 | 319 | 0.0 | 7.0 | 0.00 | 0.00 | 0.00 | 52 | 1018.1 |
| 20260830195059 | 83 | 327 | 5.0 | 11.0 | 0.00 | 0.00 | 0.00 | 47 | 1018.1 |
| 20260830194944 | 82 | 319 | 3.0 | 11.0 | 0.00 | 0.00 | 0.00 | 48 | 1018.2 |
| 20260830193853 | 83 | 326 | 3.0 | 9.0 | 0.00 | 0.00 | 0.00 | 45 | 1018.2 |
| 20260830193352 | 83 | 262 | 2.0 | 9.0 | 0.00 | 0.00 | 0.00 | 48 | 1018.2 |
| 20260830192851 | 83 | 65 | 2.0 | 9.0 | 0.00 | 0.00 | 0.00 | 47 | 1018.4 |
| 20260830192353 | 84 | 255 | 3.0 | 9.0 | 0.00 | 0.00 | 0.00 | 46 | 1018.4 |
| 20260830191852 | 84 | 335 | 2.0 | 5.0 | 0.00 | 0.00 | 0.00 | 47 | 1018.3 |
| 20260830191349 | 84 | 322 | 1.0 | 4.0 | 0.00 | 0.00 | 0.00 | 48 | 1018.3 |
| 20260830190850 | 84 | 316 | 1.0 | 6.0 | 0.00 | 0.00 | 0.00 | 48 | 1018.4 |
| 20260830190350 | 84 | 312 | 4.0 | 8.0 | 0.00 | 0.00 | 0.00 | 47 | 1018.5 |
| 20260830185848 | 83 | 311 | 3.0 | 8.0 | 0.00 | 0.00 | 0.00 | 50 | 1018.5 |
| 20260830185349 | 83 | 339 | 2.0 | 8.0 | 0.00 | 0.00 | 0.00 | 49 | 1018.5 |
| 20260830184848 | 83 | 292 | 2.0 | 6.0 | 0.00 | 0.00 | 0.00 | 50 | 1018.4 |
| 20260830184348 | 83 | 323 | 1.0 | 7.0 | 0.00 | 0.00 | 0.00 | 48 | 1018.6 |
| 20260830183846 | 84 | 213 | 2.0 | 7.0 | 0.00 | 0.00 | 0.00 | 46 | 1018.7 |
| 20260830183347 | 84 | 307 | 2.0 | 8.0 | 0.00 | 0.00 | 0.00 | 48 | 1018.7 |
| 20260830183107 | 84 | 309 | 3.0 | 9.0 | 0.00 | 0.00 | 0.00 | 47 | 1018.7 |
| 20260830182345 | 84 | 338 | 4.0 | 9.0 | 0.00 | 0.00 | 0.00 | 48 | 1018.8 |
| 20260830181846 | 83 | 32 | 3.0 | 6.0 | 0.00 | 0.00 | 0.00 | 51 | 1018.8 |
| 20260830181602 | 83 | 188 | 1.0 | 4.0 | 0.00 | 0.00 | 0.00 | 52 | 1018.9 |
| 20260830180841 | 83 | 273 | 2.0 | 4.0 | 0.00 | 0.00 | 0.00 | 53 | 1019.0 |
| 20260830180342 | 83 | 0 | 1.0 | 4.0 | 0.00 | 0.00 | 0.00 | 54 | 1019.1 |
| 20260830175841 | 83 | 46 | 1.0 | 5.0 | 0.00 | 0.00 | 0.00 | 51 | 1019.0 |
| 20260830175333 | 83 | 177 | 2.0 | 5.0 | 0.00 | 0.00 | 0.00 | 53 | 1018.9 |
| 20260830175056 | 83 | 330 | 1.0 | 4.0 | 0.00 | 0.00 | 0.00 | 51 | 1019.0 |
| 20260830174331 | 83 | 319 | 0.0 | 7.0 | 0.00 | 0.00 | 0.00 | 51 | 1018.9 |
| 20260830173830 | 83 | 295 | 4.0 | 7.0 | 0.00 | 0.00 | 0.00 | 49 | 1019.1 |
| 20260830173552 | 84 | 341 | 2.0 | 7.0 | 0.00 | 0.00 | 0.00 | 49 | 1019.3 |
| 20260830172829 | 85 | 282 | 2.0 | 16.0 | 0.00 | 0.00 | 0.00 | 48 | 1019.4 |
| 20260830172329 | 85 | 350 | 2.0 | 16.0 | 0.00 | 0.00 | 0.00 | 48 | 1019.4 |
| 20260830171828 | 84 | 300 | 3.0 | 8.0 | 0.00 | 0.00 | 0.00 | 53 | 1019.4 |
| 20260830171327 | 84 | 352 | 2.0 | 4.0 | 0.00 | 0.00 | 0.00 | 51 | 1019.5 |
| 20260830170825 | 84 | 23 | 2.0 | 7.0 | 0.00 | 0.00 | 0.00 | 49 | 1019.6 |
| 20260830170324 | 84 | 11 | 3.0 | 7.0 | 0.00 | 0.00 | 0.00 | 50 | 1019.6 |
| 20260830165824 | 84 | 315 | 2.0 | 5.0 | 0.00 | 0.00 | 0.00 | 49 | 1019.7 |
| 20260830165325 | 84 | 0 | 2.0 | 6.0 | 0.00 | 0.00 | 0.00 | 50 | 1019.7 |
| 20260830164825 | 84 | 266 | 2.0 | 6.0 | 0.00 | 0.00 | 0.00 | 50 | 1019.7 |
| 20260830164323 | 83 | 38 | 2.0 | 8.0 | 0.00 | 0.00 | 0.00 | 51 | 1019.6 |
| 20260830163816 | 83 | 1 | 3.0 | 8.0 | 0.00 | 0.00 | 0.00 | 51 | 1019.7 |
| 20260830163315 | 84 | 280 | 2.0 | 5.0 | 0.00 | 0.00 | 0.00 | 50 | 1019.7 |
| 20260830162817 | 84 | 162 | 2.0 | 10.0 | 0.00 | 0.00 | 0.00 | 52 | 1019.8 |
| 20260830162314 | 84 | 297 | 2.0 | 10.0 | 0.00 | 0.00 | 0.00 | 52 | 1019.8 |
| 20260830161813 | 84 | 181 | 2.0 | 8.0 | 0.00 | 0.00 | 0.00 | 54 | 1019.9 |
| 20260830161312 | 83 | 350 | 3.0 | 9.0 | 0.00 | 0.00 | 0.00 | 53 | 1019.9 |
| 20260830160812 | 83 | 200 | 1.0 | 9.0 | 0.00 | 0.00 | 0.00 | 52 | 1019.9 |